When you browse on this site, cookies collect data to enhance your experience and personalize the content and advertising you see.
Visit our Privacy Policy to learn more. By continuing to use the site, you agree to this use of cookies and data.
  • In Hungary
  • List of Countries
  • For 7 days
  • Water Temperature
  • Weather Map
  • News
  • Weather Widgets
  • user-avatar
    Login

    Hourly Weather La Cruz de La India

    Today, 14 November, Thursday

    Time Temperature Precipitation Wind Pressure Humidity
    00:00 +22°C° 0.1 mm 1 mps 720 mmHg 93%
    01:00 +22°C° 0 mm 1 mps 720 mmHg 93%
    02:00 +22°C° 0 mm 1 mps 720 mmHg 93%
    03:00 +22°C° 0 mm 1 mps 719 mmHg 93%
    04:00 +21°C° 0 mm 1 mps 720 mmHg 93%
    05:00 +21°C° 0 mm 1 mps 720 mmHg 93%
    06:00 +21°C° 0 mm 1 mps 720 mmHg 93%
    07:00 +24°C° 0 mm 1 mps 721 mmHg 86%
    08:00 +26°C° 0 mm 1 mps 722 mmHg 79%
    09:00 +26°C° 0 mm 0 mps 723 mmHg 72%
    10:00 +29°C° 0 mm 1 mps 722 mmHg 68%
    11:00 +30°C° 0 mm 1 mps 721 mmHg 64%
    12:00 +31°C° 0 mm 1 mps 720 mmHg 60%
    13:00 +30°C° 1.1 mm 1 mps 720 mmHg 65%
    14:00 +30°C° 1.1 mm 1 mps 719 mmHg 70%
    15:00 +29°C° 1.1 mm 1 mps 719 mmHg 75%
    16:00 +27°C° 1.8 mm 1 mps 719 mmHg 80%
    17:00 +24°C° 1.8 mm 0 mps 719 mmHg 85%
    18:00 +22°C° 1.8 mm 0 mps 719 mmHg 90%
    19:00 +22°C° 2.2 mm 0 mps 720 mmHg 92%
    20:00 +22°C° 2.2 mm 0 mps 721 mmHg 93%
    21:00 +24°C° 2.2 mm 1 mps 721 mmHg 94%
    22:00 +24°C° 1.5 mm 1 mps 721 mmHg 94%
    23:00 +23°C° 1.5 mm 1 mps 721 mmHg 94%

    Tomorrow, 15 November, Friday

    Time Temperature Precipitation Wind Pressure Humidity
    00:00 +23°C° 1.5 mm 1 mps 721 mmHg 95%
    01:00 +23°C° 0.6 mm 1 mps 720 mmHg 95%
    02:00 +23°C° 0.6 mm 1 mps 720 mmHg 95%
    03:00 +23°C° 0.6 mm 1 mps 720 mmHg 95%
    04:00 +23°C° 0 mm 1 mps 720 mmHg 95%
    05:00 +22°C° 0 mm 1 mps 720 mmHg 94%
    06:00 +22°C° 0 mm 1 mps 720 mmHg 94%
    07:00 +24°C° 0 mm 1 mps 721 mmHg 89%
    08:00 +26°C° 0 mm 1 mps 721 mmHg 83%
    09:00 +28°C° 0 mm 1 mps 722 mmHg 77%
    10:00 +29°C° 0.1 mm 1 mps 721 mmHg 73%
    11:00 +30°C° 0.1 mm 1 mps 721 mmHg 69%
    12:00 +30°C° 0.1 mm 1 mps 720 mmHg 65%
    13:00 +30°C° 1.7 mm 1 mps 720 mmHg 71%
    14:00 +29°C° 1.7 mm 1 mps 719 mmHg 76%
    15:00 +29°C° 1.7 mm 1 mps 718 mmHg 81%
    16:00 +27°C° 0.9 mm 1 mps 719 mmHg 85%
    17:00 +24°C° 0.9 mm 0 mps 719 mmHg 88%
    18:00 +23°C° 0.9 mm 0 mps 719 mmHg 91%
    19:00 +22°C° 0.7 mm 0 mps 720 mmHg 92%
    20:00 +24°C° 0.7 mm 1 mps 720 mmHg 92%
    21:00 +23°C° 0.7 mm 1 mps 721 mmHg 92%
    22:00 +23°C° 0 mm 1 mps 721 mmHg 93%
    23:00 +23°C° 0 mm 1 mps 720 mmHg 93%

    Day after tomorrow, 16 November, Saturday

    Time Temperature Precipitation Wind Pressure Humidity
    00:00 +23°C° 0 mm 1 mps 720 mmHg 93%
    01:00 +22°C° 0 mm 1 mps 720 mmHg 93%
    02:00 +22°C° 0 mm 1 mps 719 mmHg 93%
    03:00 +22°C° 0 mm 1 mps 719 mmHg 93%
    04:00 +22°C° 0 mm 1 mps 719 mmHg 93%
    05:00 +22°C° 0 mm 1 mps 719 mmHg 93%
    06:00 +22°C° 0 mm 1 mps 720 mmHg 94%
    07:00 +24°C° 0 mm 1 mps 720 mmHg 87%
    08:00 +26°C° 0 mm 1 mps 721 mmHg 81%
    09:00 +28°C° 0 mm 1 mps 721 mmHg 75%
    10:00 +29°C° 0 mm 1 mps 721 mmHg 71%
    11:00 +30°C° 0 mm 1 mps 720 mmHg 68%
    12:00 +31°C° 0 mm 2 mps 719 mmHg 64%
    13:00 +30°C° 0.9 mm 2 mps 719 mmHg 69%
    14:00 +30°C° 0.9 mm 1 mps 718 mmHg 74%
    15:00 +29°C° 0.9 mm 1 mps 717 mmHg 79%
    16:00 +28°C° 0.7 mm 1 mps 718 mmHg 83%
    17:00 +26°C° 0.7 mm 1 mps 718 mmHg 86%
    18:00 +23°C° 0.7 mm 0 mps 718 mmHg 89%
    19:00 +24°C° 0.4 mm 1 mps 719 mmHg 90%
    20:00 +24°C° 0.4 mm 1 mps 719 mmHg 91%
    21:00 +23°C° 0.4 mm 1 mps 720 mmHg 92%
    22:00 +23°C° 0 mm 1 mps 719 mmHg 92%
    23:00 +23°C° 0 mm 1 mps 719 mmHg 93%

    17 November, Sunday

    Time Temperature Precipitation Wind Pressure Humidity
    00:00 +22°C° 0 mm 1 mps 719 mmHg 93%
    01:00 +22°C° 0 mm 1 mps 719 mmHg 93%
    02:00 +22°C° 0 mm 1 mps 718 mmHg 93%
    03:00 +22°C° 0 mm 1 mps 718 mmHg 93%
    04:00 +22°C° 0 mm 1 mps 718 mmHg 93%
    05:00 +22°C° 0 mm 1 mps 719 mmHg 94%
    06:00 +21°C° 0 mm 1 mps 719 mmHg 94%
    07:00 +23°C° 0 mm 1 mps 719 mmHg 88%
    08:00 +25°C° 0 mm 1 mps 720 mmHg 82%
    09:00 +27°C° 0 mm 1 mps 720 mmHg 76%
    10:00 +28°C° 0.1 mm 1 mps 720 mmHg 74%
    11:00 +29°C° 0.1 mm 1 mps 719 mmHg 71%
    12:00 +30°C° 0.1 mm 1 mps 718 mmHg 68%
    13:00 +29°C° 1.2 mm 1 mps 718 mmHg 72%
    14:00 +29°C° 1.2 mm 1 mps 717 mmHg 76%
    15:00 +28°C° 1.2 mm 1 mps 716 mmHg 80%
    16:00 +27°C° 0.8 mm 1 mps 717 mmHg 83%
    17:00 +24°C° 0.8 mm 0 mps 717 mmHg 87%
    18:00 +22°C° 0.8 mm 0 mps 718 mmHg 90%
    19:00 +24°C° 0.4 mm 1 mps 718 mmHg 91%
    20:00 +24°C° 0.4 mm 1 mps 718 mmHg 92%
    21:00 +23°C° 0.4 mm 1 mps 719 mmHg 92%
    22:00 +23°C° 0 mm 1 mps 719 mmHg 93%
    23:00 +23°C° 0 mm 1 mps 719 mmHg 93%

    18 November, Monday

    Time Temperature Precipitation Wind Pressure Humidity
    00:00 +22°C° 0 mm 1 mps 719 mmHg 93%
    01:00 +22°C° 0.1 mm 1 mps 718 mmHg 93%
    02:00 +22°C° 0.1 mm 1 mps 718 mmHg 93%
    03:00 +22°C° 0.1 mm 1 mps 718 mmHg 94%
    04:00 +22°C° 0 mm 1 mps 718 mmHg 94%
    05:00 +22°C° 0 mm 1 mps 719 mmHg 94%
    06:00 +21°C° 0 mm 1 mps 719 mmHg 94%
    07:00 +23°C° 0 mm 1 mps 720 mmHg 89%
    08:00 +25°C° 0 mm 1 mps 720 mmHg 83%
    09:00 +25°C° 0 mm 0 mps 720 mmHg 78%
    10:00 +28°C° 0 mm 1 mps 720 mmHg 74%
    11:00 +29°C° 0 mm 1 mps 719 mmHg 71%
    12:00 +30°C° 0 mm 1 mps 719 mmHg 67%
    13:00 +29°C° 1 mm 1 mps 718 mmHg 72%
    14:00 +29°C° 1 mm 1 mps 717 mmHg 77%
    15:00 +28°C° 1 mm 1 mps 717 mmHg 81%
    16:00 +27°C° 0.8 mm 1 mps 717 mmHg 85%
    17:00 +25°C° 0.8 mm 1 mps 717 mmHg 89%
    18:00 +22°C° 0.8 mm 0 mps 718 mmHg 94%
    19:00 +21°C° 0.1 mm 0 mps 718 mmHg 94%
    20:00 +21°C° 0.1 mm 0 mps 719 mmHg 94%
    21:00 +21°C° 0.1 mm 0 mps 719 mmHg 95%
    22:00 +21°C° 0.1 mm 0 mps 719 mmHg 95%
    23:00 +21°C° 0.1 mm 0 mps 719 mmHg 95%

    19 November, Tuesday

    Time Temperature Precipitation Wind Pressure Humidity
    00:00 +21°C° 0.1 mm 0 mps 719 mmHg 95%
    01:00 +21°C° 0.1 mm 0 mps 719 mmHg 95%
    02:00 +20°C° 0.1 mm 0 mps 719 mmHg 95%
    03:00 +20°C° 0.1 mm 0 mps 718 mmHg 95%
    04:00 +20°C° 0 mm 0 mps 719 mmHg 95%
    05:00 +22°C° 0 mm 1 mps 719 mmHg 95%
    06:00 +22°C° 0 mm 1 mps 719 mmHg 95%
    07:00 +24°C° 0 mm 1 mps 720 mmHg 90%
    08:00 +25°C° 0 mm 1 mps 720 mmHg 84%
    09:00 +27°C° 0 mm 1 mps 721 mmHg 79%
    10:00 +28°C° 0.1 mm 1 mps 720 mmHg 77%
    11:00 +29°C° 0.1 mm 1 mps 720 mmHg 74%
    12:00 +29°C° 0.1 mm 1 mps 719 mmHg 72%
    13:00 +29°C° 1 mm 1 mps 719 mmHg 75%
    14:00 +28°C° 1 mm 1 mps 718 mmHg 78%
    15:00 +28°C° 1 mm 1 mps 718 mmHg 81%
    16:00 +27°C° 1.2 mm 1 mps 718 mmHg 85%
    17:00 +25°C° 1.2 mm 1 mps 719 mmHg 88%
    18:00 +22°C° 1.2 mm 0 mps 719 mmHg 92%
    19:00 +24°C° 0.2 mm 1 mps 719 mmHg 92%
    20:00 +23°C° 0.2 mm 1 mps 720 mmHg 92%
    21:00 +23°C° 0.2 mm 1 mps 720 mmHg 93%
    22:00 +23°C° 0 mm 1 mps 720 mmHg 93%
    23:00 +22°C° 0 mm 1 mps 720 mmHg 93%
    Show more